User: anonymous   Login
Location: Eaton
(41.3139°N, 82.0207°W)
Time: 06:35:32
(UTC+00:00)
Language:

Spot 4 - Orbit

View from above orbital plane
View from above orbital plane
View from above satellite
View from above satellite

Ground track
Ground track

The orbit data is extracted from the following two-line orbital elements,

1 25260U 98017A   21263.85431606  .00000045  00000-0  21483-4 0  9998
2 25260  98.2810 354.5805 0013496 159.0516 201.1235 14.53693481227981
Epoch (UTC): 20 September 2021 20:30:12
Eccentricity: 0.0013496
inclination: 98.2810°
perigee height: 704 km
apogee height: 723 km
right ascension of ascending node: 354.5805°
argument of perigee: 159.0516°
revolutions per day: 14.53693481
mean anomaly at epoch: 201.1235°
orbit number at epoch: 22798

The dashed part of the orbit path shows where the satellite is in the earth's shadow,  

DLR